AZIENDA SOCIO SANITARIA TERRITORIALE (ASST) DI MONZA

La Casa di Vetro







Struttura Proponente Importo Oggetto CIG Pubblicato
AZIENDA SOCIO SANITARIA TERRITORIALE di MONZA 356.00 € ORD. 2016/51000914 - CONTO ECONOMICO 10200503 Z7A1A8615E 14/02/2017
AZIENDA SOCIO SANITARIA TERRITORIALE di MONZA 7,200.00 € N. 1 AUTOREFRATTOMETRO Z7A1C3B9EA 14/02/2017
AZIENDA SOCIO SANITARIA TERRITORIALE di MONZA 40,000.00 € N. 20 LETTI DI DEGENZA A MOVIMENTO ELETTRICO Z7D1C5BC7D 14/02/2017
AZIENDA SOCIO SANITARIA TERRITORIALE di MONZA 762.00 € ORDINE 2016/51001148 CONTO ECONOMICO 10200708 Z7E1B20B30 14/02/2017
AZIENDA SOCIO SANITARIA TERRITORIALE di MONZA 3,222.00 € ORDINE 2016/51001204 BARELLA PRONTO SOCCORSO Z7F1BFABF7 14/02/2017
AZIENDA SOCIO SANITARIA TERRITORIALE di MONZA 180.00 € ORD.2016/51000757 CONTO 10200708 - CARROZZINA Z821A0091F 14/02/2017
AZIENDA SOCIO SANITARIA TERRITORIALE di MONZA 80.00 € ORD. 2016/51001008 RIPARAZIONE SEDIA Z831AA86E5 14/02/2017
AZIENDA SOCIO SANITARIA TERRITORIALE di MONZA 69.00 € ORDINE 2016/51001147 PEZZI DI RICAMBIO CARRELLI Z861B20871 14/02/2017
AZIENDA SOCIO SANITARIA TERRITORIALE di MONZA 2,090.00 € ORDINE 2016/51001278 LETTINI PER TRAZIONE Z871B914C6 14/02/2017
AZIENDA SOCIO SANITARIA TERRITORIALE di MONZA 252.00 € ORDINE 2016.51001213 CONTO ECONOMICO 80101103 ARICOLI DIVERSI Z881B604AB 14/02/2017
AZIENDA SOCIO SANITARIA TERRITORIALE di MONZA 1,193.00 € ORD.2016/5100901 CONTO 10200708 - CARROZZINA Z891A7638C 14/02/2017
AZIENDA SOCIO SANITARIA TERRITORIALE di MONZA 4,000.00 € ORDINE 2016/510003468 RIPARAZIONE MANICHINI Z8C1C8B37E 14/02/2017
AZIENDA SOCIO SANITARIA TERRITORIALE di MONZA 62.00 € RDO MEPA DEAMBULATORI Z9317B8AE5 14/02/2017
AZIENDA SOCIO SANITARIA TERRITORIALE di MONZA 150.00 € ORD.2016/51000546 CONTO 10200708 SGABELLO Z93195C911 14/02/2017
AZIENDA SOCIO SANITARIA TERRITORIALE di MONZA 22.50 € ORDINE 2016/51001424 TRAPEZIO LETTO FARAM Z951C117C4 14/02/2017
AZIENDA SOCIO SANITARIA TERRITORIALE di MONZA 960.00 € ORDINE N.2016/51001421 ACCESSORI LETTI ELETTRICI LINET Z971C1126C 14/02/2017
AZIENDA SOCIO SANITARIA TERRITORIALE di MONZA 3,239.80 € INTERVENTO DI RIPARAZIONE N 2 VIDEOCOLONSCOPI PENTAX Z971CAE749 14/02/2017
AZIENDA SOCIO SANITARIA TERRITORIALE di MONZA 500.00 € ORD. 2016/51000725 CONTO 1020503 TENDE DIVISORIE Z9A19E3AED 14/02/2017
AZIENDA SOCIO SANITARIA TERRITORIALE di MONZA 560.00 € ORDINE 2016/51001194 CONTO ECONOMICO 10200708 Z9A1B5AE56 14/02/2017
AZIENDA SOCIO SANITARIA TERRITORIALE di MONZA 1,220.00 € ORDINE 2016/51001112 CARRELLI PORTACESTELLI Z9B1B00F47 14/02/2017
AZIENDA SOCIO SANITARIA TERRITORIALE di MONZA 860.00 € Fornitura di ricambi per riparazione termosaldatrici Gandus Z9C1BFC85F 14/02/2017
AZIENDA SOCIO SANITARIA TERRITORIALE di MONZA 2,036.00 € ORDINE 2016/51001136 CONTO ECONOMICO 10200503 CARRELLI TERAPIA Z9F1B0F2D8 14/02/2017
AZIENDA SOCIO SANITARIA TERRITORIALE di MONZA 560.00 € ORDINE N.2016/51001140 REGGIGREMBIULI RADIOLOGIA ZA11B16DF1 14/02/2017
AZIENDA SOCIO SANITARIA TERRITORIALE di MONZA 12,200.00 € RS MEDICA - RIPARAZIONE LOCALIZZATORE PER TC PER CASCO STEREOTASSICO RADIONCS ZA31831BB6 14/02/2017
AZIENDA SOCIO SANITARIA TERRITORIALE di MONZA 4,700.00 € INTERVENTI DI RIPARAZIONE APPARECCHIATURE FRIGORIFERE ZA61BFC820 14/02/2017
AZIENDA SOCIO SANITARIA TERRITORIALE di MONZA 22.00 € ORDINE 2016/51001288 CONTO ECONOMICO 10200708 - BILANCIA PESAPERSONE ZA81B99353 14/02/2017
AZIENDA SOCIO SANITARIA TERRITORIALE di MONZA 130.00 € ORDINE 2016/51001032 CONTO ECONOMICO 80101103 ZA91AC852D 14/02/2017
AZIENDA SOCIO SANITARIA TERRITORIALE di MONZA 7,500.00 € RDO PER ACQUISTO IN ECONOMIA DI N. 1 APPARECCHIATURA PORTATILE DI PRESSOTERAPIA "LINFOROLL" ZAA184E489 14/02/2017
AZIENDA SOCIO SANITARIA TERRITORIALE di MONZA 2,274.00 € ORD.2016/51000375 CONTO 10200503 CARRELLI PEIMAF ZAA1A603A1 14/02/2017
AZIENDA SOCIO SANITARIA TERRITORIALE di MONZA 207.00 € ORD.2016/51000516 CONTO 10200503 PIANTANE ZAF193F70C 14/02/2017
AZIENDA SOCIO SANITARIA TERRITORIALE di MONZA 192.00 € ORDINE 2016/5100000 RIPARAZIONE SEDIE DS ZB01AB7292 14/02/2017
AZIENDA SOCIO SANITARIA TERRITORIALE di MONZA 320.00 € ORDINE 2016/51001280 CINGHIE PER ORTOPEDIA ZB41B93F4C 14/02/2017
AZIENDA SOCIO SANITARIA TERRITORIALE di MONZA 19,890.00 € ACQUISIZIONE N. 2000 LICENZE ZIMBRA BIZMAILPLUS RDO MEPA 1141925 ZB5189EBEA 14/02/2017
AZIENDA SOCIO SANITARIA TERRITORIALE di MONZA 1,044.00 € ORD.2016/51000 CONTO ECONOMICO 10200708 ZB918FEF59 14/02/2017
AZIENDA SOCIO SANITARIA TERRITORIALE di MONZA 70.00 € ORD. 2016/51000247 CONTO 80100413 ZBB185A368 14/02/2017
AZIENDA SOCIO SANITARIA TERRITORIALE di MONZA 7,000.00 € PROCEDURA DI COTTIMO FIDUCIARIO PER L'AFFIDAMENTO DELLA FORNITURA DI N. 2 SISTEMI ELETTRONICI DI PODOSCOPIA/POSTUROLOGIA E N. 1 PEDANA BAROPODOMETRICA DESTINATI ALLA U.O. ORTOPEDIA ZBC15C6116 14/02/2017
AZIENDA SOCIO SANITARIA TERRITORIALE di MONZA 38.00 € ORDINE 2016/51001249 CALORIFERO ZBF1B8E90A 14/02/2017
AZIENDA SOCIO SANITARIA TERRITORIALE di MONZA 4,100.00 € VERATHON MEDICAL - RIPARAZIONE DI LAMA GLIDESCOPE GVL 4 ZC01831AB4 14/02/2017
AZIENDA SOCIO SANITARIA TERRITORIALE di MONZA 19,600.00 € PROCEDURA DI COTTIMO FIDUCIARIO PER L'AFFIDAMENTO DELLA FORNITURA DI N. 2 CAMERE SILENTI PER AUDIOMETRIA ZC119C2547 14/02/2017
AZIENDA SOCIO SANITARIA TERRITORIALE di MONZA 8,621.00 € RDO PER AFFIDAMENTO DIRETTO PER LA FORNITURA DI APPARECCHIATURE PER AMPLIAMENTO DEL SISTEMA DI CONTROLLO ED ALLARME TEMPERATURA FRIGORIFERI ORIGINALE TESTO ZC11A08EC7 14/02/2017
AZIENDA SOCIO SANITARIA TERRITORIALE di MONZA 32.50 € ORD.2016/51000341 CONTO ECONOMICO 10200708 ZC2189BD6A 14/02/2017
AZIENDA SOCIO SANITARIA TERRITORIALE di MONZA 40.00 € ORD.2016/51000882 CONTO 80101103 MATERIALE VARIO ZC31A659C9 14/02/2017
AZIENDA SOCIO SANITARIA TERRITORIALE di MONZA 150.00 € ORDINE 2016/510001405 CALCOLATRICE 10200708 ZC41BF6A3E 14/02/2017
AZIENDA SOCIO SANITARIA TERRITORIALE di MONZA 296.00 € FRASTEMA - FORNITURA DI N.2 OCULARI PER LAMPADA A FESSURA INAMI ZC71831B9C 14/02/2017
AZIENDA SOCIO SANITARIA TERRITORIALE di MONZA 18.00 € ORDINE 2015/51001418 BILANCIA PESA ALIMENTI ZC81C0DBFA 14/02/2017
AZIENDA SOCIO SANITARIA TERRITORIALE di MONZA 740.00 € CITYA - RIPARAZIONE N.2 TONOMETRI ZCA1831B70 14/02/2017
AZIENDA SOCIO SANITARIA TERRITORIALE di MONZA 125.00 € ORD.2016/51000459 CONTO ECONOMICO 10200503 ZCA1905404 14/02/2017
AZIENDA SOCIO SANITARIA TERRITORIALE di MONZA 65.00 € ORDINE 2016/51001121 0000 CALCOLATRICE ZCB1B07C4D 14/02/2017
AZIENDA SOCIO SANITARIA TERRITORIALE di MONZA 10,409.83 € CTR MANUTENZIONE SISTEMA TELEVISIVO PER ENDOSCOPIA KARL STORZ PER ORL ZCF19C777D 14/02/2017
AZIENDA SOCIO SANITARIA TERRITORIALE di MONZA 10,550.00 € AFFIDAMENTO DIRETTO DELLA FORNITURA DI ACCESSORI COMPLEMENTARI PER SISTEMA DI ELETTROENCEFALOGRAFIA DELLA UO NEUROLOGIA ZD01B435AF 14/02/2017
 
Ultimo aggiornamento: 14/01/2022
Documenti trovati: 60,765